RH
69 65 60 58 63 68 71 76 75 71 67 63 58 53 51 50 51 52 53 53 53 53 58 57 49 45 46 44 43 43 43 40 36 33 30 29 27 24 21 18 16 14 12 10 8 8 8 9 10 12 12 12 12 11 11 10 9 9 8 8 7 6 6 6 5 5 5 5 4 4 4 4 4 3 3 3 3 3 3 3 3 3 3 3 3 3 3 4
67 62 56 53 57 64 68 72 71 68 63 58 54 51 50 50 50 51 50 51 53 57 60 53 44 42 42 42 42 43 42 36 30 26 22 18 15 12 10 8 8 8 8 8 8 10 10 11 12 12 11 10 8 7 6 6 5 5 4 4 4 3 3 4 3 3 3 3 3 3 3 3 3 3 3 3 3 4 4 5 4 4 4 4 5 5 5 5
66 59 54 53 54 58 64 69 67 63 59 55 52 49 49 50 50 49 50 55 59 58 54 47 42 41 40 42 41 38 32 24 19 15 11 9 7 7 7 8 9 10 11 11 11 11 11 10 9 7 6 5 4 3 3 3 3 3 3 3 3 3 3 3 3 3 3 4 4 4 5 5 5 5 6 6 6 7 8 8 8 8 8 8 8 8 8 8
64 57 52 51 51 54 61 65 62 58 55 52 49 48 49 49 50 52 57 60 56 49 43 40 39 39 39 36 31 24 17 13 10 7 7 7 7 8 10 10 11 11 11 10 9 7 6 5 4 3 3 3 3 2 3 3 3 3 4 4 4 5 4 5 5 5 6 6 6 7 7 7 7 8 8 9 9 10 10 10 10 11 11 11 11 12 12 12
60 52 48 48 50 54 59 59 56 54 52 49 48 47 48 52 56 60 59 51 43 38 36 35 35 33 28 22 16 11 8 8 7 7 8 9 10 11 10 9 8 6 5 5 4 3 3 2 2 2 2 3 3 4 5 5 5 5 6 6 6 7 7 7 7 8 8 9 9 9 9 9 9 10 10 11 11 11 11 12 12 13 13 13 14 14 14 14
54 48 47 49 52 56 56 54 53 51 49 47 46 48 55 60 59 53 44 38 34 33 31 29 25 20 15 11 8 6 6 7 9 10 11 11 10 8 6 5 3 3 3 2 2 2 2 3 3 4 4 5 6 6 6 7 7 7 8 8 8 8 8 8 9 10 10 10 10 10 11 11 11 12 13 13 13 13 14 14 14 14 15 14 15 14 15 15
49 47 48 52 55 56 54 52 51 48 45 46 51 59 62 56 45 38 34 32 29 27 24 19 14 10 8 7 7 7 9 10 11 11 9 7 5 4 3 2 2 2 3 3 3 4 4 5 5 6 7 7 7 7 8 8 8 8 9 9 9 10 10 10 11 11 11 12 11 12 13 13 14 14 15 16 16 16 16 16 15 15 15 15 15 15 15 15
49 50 53 56 57 56 54 51 47 46 49 57 63 61 51 40 33 32 29 26 22 19 15 10 8 7 7 9 10 11 12 11 10 7 5 3 2 2 2 2 3 3 4 5 5 6 7 7 7 8 8 8 8 8 9 9 9 10 10 9 10 10 11 11 11 11 11 12 11 11 12 14 15 15 16 17 16 16 16 16 15 15 15 15 15 15 15 15
56 58 59 59 57 55 52 49 51 58 64 65 58 44 35 31 30 26 22 18 14 11 8 7 8 9 10 11 10 10 9 7 5 3 2 2 2 2 3 4 5 5 6 7 7 7 8 8 8 8 9 9 9 9 10 10 10 10 10 10 10 10 11 11 11 11 11 12 10 10 11 13 15 15 15 16 16 16 16 15 15 15 15 15 15 14 14 14
65 64 63 60 58 57 57 62 67 69 62 49 38 31 29 27 22 18 13 10 7 7 8 9 10 11 11 8 5 5 4 3 2 2 3 4 4 5 5 6 6 7 7 8 8 8 8 9 9 9 10 10 10 11 11 11 12 12 12 12 12 11 11 11 12 13 12 13 12 11 11 12 14 15 15 16 15 15 15 16 15 15 15 15 15 15 15 16
70 68 67 65 66 69 73 73 65 52 41 33 29 26 22 18 13 10 7 7 8 10 10 11 10 8 7 4 2 2 2 3 3 4 5 6 6 6 7 7 7 8 8 8 9 9 9 9 10 10 11 11 11 12 12 13 13 13 13 13 13 13 13 13 14 14 14 15 14 13 12 13 15 16 16 16 16 16 16 17 16 16 17 17 18 19 20 22
76 75 76 77 79 79 71 58 43 34 29 26 23 17 13 10 7 6 8 10 11 10 9 8 5 3 3 2 2 3 4 5 5 6 7 7 7 7 8 8 8 9 9 9 9 10 11 11 11 12 12 12 13 13 14 14 14 14 14 14 14 15 16 16 16 16 16 17 16 16 15 16 18 18 18 18 18 19 19 20 20 21 22 23 24 26 27 27
84 84 84 83 78 67 51 38 30 26 22 18 14 10 7 6 7 10 12 12 10 6 4 3 2 2 2 3 4 4 5 5 6 7 7 8 8 8 8 9 9 10 10 11 11 11 11 12 13 13 13 14 14 14 14 15 16 16 16 17 17 18 19 19 19 19 19 19 20 20 18 18 21 21 21 22 23 24 25 26 27 28 30 30 31 31 31 31
88 86 82 74 61 45 34 27 22 18 14 11 8 6 7 9 12 12 10 8 6 3 2 2 2 3 3 4 5 6 6 6 7 7 8 8 8 9 9 9 10 11 11 12 12 12 12 13 13 13 14 15 15 15 16 17 18 19 20 21 20 20 22 22 22 22 22 22 23 24 22 21 25 27 28 29 30 31 32 33 34 35 36 36 36 35 34 32
85 80 69 55 41 30 23 18 14 10 8 7 7 9 11 12 11 8 6 4 3 2 2 3 3 4 5 5 6 7 7 7 7 7 8 8 9 10 10 11 11 11 12 12 12 12 12 13 13 14 14 14 15 16 17 18 18 20 21 22 22 22 24 24 25 25 25 26 27 29 27 26 30 32 34 36 37 38 39 39 40 40 40 39 37 35 33 30
76 64 49 36 26 19 14 10 8 7 6 8 11 12 11 9 6 4 3 2 2 3 4 4 5 5 5 5 6 7 7 7 8 8 9 10 10 11 11 12 12 12 12 12 12 12 13 14 14 15 16 16 17 17 17 16 17 19 20 23 25 26 27 27 28 28 29 29 31 34 33 31 34 35 36 39 40 41 41 41 42 41 40 38 37 35 33 31
58 43 31 22 15 11 8 7 7 8 10 13 12 11 8 5 3 2 2 3 4 4 5 6 6 6 6 6 7 7 7 8 9 10 10 11 11 11 12 11 11 12 12 12 13 13 13 15 15 15 16 17 17 17 19 19 21 25 26 28 29 29 30 30 31 32 32 33 35 40 41 39 40 39 37 38 40 40 41 41 41 41 39 38 37 34 32 30
36 26 18 12 8 6 7 8 10 12 13 11 10 7 5 3 2 2 3 4 4 5 5 6 5 6 6 6 7 8 9 10 10 11 11 11 11 11 12 11 11 11 12 13 14 13 13 13 14 15 15 16 18 19 22 24 24 26 26 26 27 29 32 32 35 36 34 34 38 42 42 41 43 40 36 36 40 41 42 43 43 41 39 37 35 33 33 33
20 13 9 7 7 8 11 12 13 13 11 7 5 4 3 2 3 3 4 5 5 5 5 5 6 6 7 8 9 10 10 10 11 11 11 11 11 11 11 11 11 11 12 13 14 14 13 13 13 15 15 16 17 18 20 21 21 23 23 24 25 26 28 33 37 38 36 31 33 38 35 35 41 38 35 37 41 46 49 48 45 42 39 37 36 37 40 41
10 7 7 9 11 13 13 13 12 11 8 4 3 3 3 3 4 5 5 5 5 5 6 6 7 7 8 9 9 10 10 10 11 11 11 11 11 12 12 12 12 12 12 13 13 14 13 14 14 14 15 15 17 18 19 20 20 22 24 25 27 26 25 30 36 37 36 30 29 34 32 33 41 40 38 40 44 51 54 50 46 45 44 43 43 44 45 45
7 8 11 13 14 12 10 7 6 5 4 3 2 3 3 4 5 5 5 5 5 6 6 7 8 9 10 10 10 11 11 11 11 11 12 12 12 13 12 13 13 12 13 13 13 14 13 14 14 15 15 15 17 18 20 22 23 25 26 26 27 27 24 27 35 37 36 33 31 34 34 36 43 42 41 44 49 53 51 49 52 53 53 51 50 50 49 49
10 13 14 13 10 7 5 4 3 2 2 3 3 4 4 5 5 5 5 6 6 6 7 8 9 9 10 11 11 11 12 12 12 13 13 13 13 14 13 13 13 13 13 13 13 14 14 15 15 16 17 17 18 19 21 23 25 26 26 27 28 30 27 26 32 35 37 39 36 35 37 38 43 47 49 51 51 49 48 54 59 57 55 54 54 53 52 53
14 13 10 8 6 4 3 2 2 3 3 4 4 5 5 5 5 5 6 6 7 8 9 10 10 10 11 12 12 12 14 14 14 14 14 14 14 13 14 14 14 14 14 15 15 15 16 16 17 17 17 18 19 20 22 23 26 26 26 28 29 31 32 29 31 32 37 44 44 41 38 38 46 52 59 61 54 52 59 63 61 57 57 56 55 54 53 52
10 8 6 5 4 3 2 2 3 4 4 5 5 5 5 5 5 6 6 7 8 10 10 10 11 12 12 13 13 13 14 14 14 15 14 14 14 13 14 14 14 15 15 16 16 16 17 17 17 17 18 20 20 21 22 22 25 27 27 30 30 31 35 37 38 36 36 42 50 50 39 36 45 54 69 76 66 64 68 63 59 57 57 55 54 52 51 50
5 4 3 3 2 2 3 4 4 4 4 5 5 5 5 5 6 6 7 9 10 11 12 11 11 12 12 13 14 14 15 14 15 15 14 14 14 14 15 15 15 16 16 16 16 17 17 17 19 19 20 22 23 23 23 24 26 28 30 31 33 35 37 40 41 40 37 39 51 58 48 39 38 52 79 86 72 67 65 60 60 59 56 54 52 51 53 56
3 2 2 2 3 3 4 4 4 5 5 5 5 5 5 6 7 7 8 10 11 12 13 12 13 14 15 15 15 15 15 14 14 14 14 14 15 15 15 16 16 17 17 17 17 18 19 20 21 21 23 24 25 26 27 28 29 31 33 34 36 39 40 42 42 44 45 44 54 66 65 53 39 51 78 77 66 64 61 60 60 57 56 55 56 58 60 62
2 2 3 3 4 4 4 4 5 5 5 5 5 6 6 7 8 9 10 12 12 12 13 14 15 16 16 16 15 15 14 14 14 14 14 15 15 16 17 17 17 18 18 18 20 21 22 23 24 24 26 26 28 29 30 32 33 34 37 37 40 42 43 46 46 49 51 49 58 69 76 69 48 53 68 59 57 62 61 64 62 59 60 61 64 67 67 69
2 3 4 4 4 4 4 5 5 5 5 6 6 7 8 9 10 11 12 13 13 13 15 15 16 16 16 16 15 14 14 14 15 15 15 15 16 17 18 18 18 19 20 20 22 24 24 25 26 27 28 29 31 33 33 36 36 38 40 42 45 47 48 50 50 53 54 55 60 64 75 75 54 52 61 53 59 69 67 67 65 63 66 68 71 72 72 76
3 4 4 4 4 4 4 5 5 5 5 6 7 9 10 11 12 12 13 14 14 15 16 17 17 17 16 15 15 15 15 16 15 16 15 16 17 17 18 19 20 21 22 22 23 26 27 27 28 29 30 32 34 36 37 38 39 42 44 45 48 50 50 52 54 53 50 53 58 59 69 76 59 51 59 66 75 79 74 73 70 71 74 76 77 77 80 83
4 4 4 4 4 4 5 5 5 6 6 7 9 10 11 12 13 13 13 14 16 16 17 18 18 18 17 17 17 16 16 17 17 18 17 17 19 19 20 22 23 23 23 23 25 29 29 27 29 29 29 31 32 36 41 42 44 47 48 46 43 43 42 44 48 48 43 43 51 57 65 72 67 57 60 75 83 79 78 79 76 76 76 75 77 82 86 81
4 4 4 4 4 4 5 5 6 6 8 9 10 11 12 12 13 13 14 14 16 17 18 20 19 18 17 17 16 16 16 17 16 18 18 17 18 19 19 19 19 19 20 20 22 28 30 27 28 29 27 28 29 34 42 48 49 48 50 48 39 33 31 32 37 40 38 38 47 57 60 63 67 68 76 86 83 77 78 77 74 75 75 78 84 87 82 70
3 3 4 4 4 4 4 5 6 7 9 10 10 11 12 12 12 12 13 14 16 17 19 20 19 17 16 16 16 15 16 17 15 15 15 13 14 14 14 14 14 13 14 14 15 23 29 27 25 27 27 29 29 30 37 46 49 50 51 50 45 41 38 38 43 45 43 42 49 57 60 59 65 79 91 92 84 80 79 76 79 85 88 92 94 86 72 60
3 3 3 4 4 4 4 5 7 7 9 10 10 11 11 11 12 12 13 14 16 18 20 19 17 16 15 15 16 14 15 16 14 14 13 13 14 14 14 15 14 14 14 15 14 16 25 26 23 28 31 32 34 34 38 46 50 55 57 58 64 71 68 63 64 65 56 47 49 60 67 68 74 88 96 92 85 83 81 83 89 93 97 97 89 73 59 51
3 3 3 4 4 4 5 5 7 8 9 9 10 10 10 10 11 11 13 14 17 19 20 18 16 15 14 14 15 14 14 14 13 13 13 12 14 14 13 14 14 16 16 17 16 14 21 27 27 31 34 35 42 46 49 56 60 63 65 68 78 88 89 82 79 81 72 54 51 65 76 78 82 94 100 92 84 83 88 95 97 98 100 93 78 62 50 42
3 3 3 4 4 5 5 6 7 8 8 9 9 9 9 10 10 11 13 15 18 20 19 17 15 15 16 15 15 14 13 13 11 12 12 12 12 11 11 12 13 15 15 15 16 14 20 31 34 37 42 44 49 54 57 62 67 68 70 74 81 88 91 86 80 83 82 67 60 71 82 82 84 92 95 89 86 90 97 99 98 100 97 83 67 53 43 36
3 3 3 4 4 5 5 6 7 7 8 8 8 8 8 9 10 11 14 17 19 18 17 16 15 16 17 17 17 15 13 12 10 11 11 11 11 10 11 13 12 14 14 15 18 15 18 32 38 40 50 54 54 61 67 68 70 73 75 76 79 84 88 88 81 78 82 77 71 76 83 80 81 88 89 88 91 92 88 88 94 97 88 71 57 44 35 29
3 3 4 4 5 5 5 6 6 7 7 6 6 7 7 9 10 13 16 18 18 16 15 16 15 15 15 15 15 14 13 12 10 10 10 10 11 11 11 12 12 13 14 16 20 19 18 29 40 44 52 58 58 64 72 71 73 79 82 82 82 83 87 92 90 85 85 84 79 77 77 75 85 96 93 88 87 82 79 90 99 92 75 60 46 36 28 23
2 3 4 4 4 5 5 5 5 5 5 5 6 6 8 10 12 15 18 18 17 15 14 15 15 13 13 13 12 11 10 10 9 8 9 9 10 12 11 12 12 14 16 17 22 27 23 26 40 49 54 59 63 67 69 71 76 82 86 89 91 91 90 93 98 99 97 93 89 79 66 70 91 103 100 95 90 86 90 100 97 79 63 50 37 29 24 19
3 4 4 4 4 5 4 5 5 5 5 5 6 7 9 11 15 18 19 17 15 14 14 14 13 12 12 11 10 8 8 8 8 8 8 9 10 11 12 12 13 14 18 20 23 30 30 29 38 50 56 60 64 66 68 72 76 77 80 85 90 96 99 98 100 104 102 99 99 89 66 71 97 105 102 103 98 96 101 98 85 67 53 40 29 24 20 16
3 4 4 4 4 4 5 5 5 4 5 6 6 8 11 14 18 20 18 16 14 13 13 12 11 10 10 9 8 7 7 7 7 7 8 9 9 10 11 12 15 16 19 23 25 29 33 34 36 43 50 56 63 70 75 78 80 82 83 84 89 100 104 100 96 98 99 97 104 103 79 74 99 107 102 104 101 100 99 88 72 57 43 33 25 21 17 15
4 4 4 4 4 5 5 5 5 5 6 7 8 10 14 17 20 19 16 15 14 12 12 10 10 9 8 7 7 6 7 7 7 7 8 9 9 10 12 13 15 18 20 25 27 28 32 34 35 38 44 52 65 74 75 76 82 90 93 91 95 105 104 100 97 96 94 90 97 108 91 80 100 109 102 103 103 101 92 74 58 47 36 28 22 18 16 15
4 5 4 4 4 5 5 5 5 6 6 9 11 13 17 19 19 18 14 13 13 12 10 9 9 8 7 7 6 6 7 7 7 8 8 9 9 10 12 14 15 19 22 25 29 30 32 35 36 39 43 52 63 67 64 65 72 80 91 96 98 103 103 103 104 102 99 90 88 96 88 80 98 107 100 102 104 97 81 61 48 39 30 24 19 17 16 15
4 4 4 4 5 5 5 5 6 6 7 10 13 15 19 19 17 16 13 13 13 11 10 9 8 8 7 7 7 7 7 7 8 8 8 9 10 11 13 15 17 20 24 28 31 33 36 40 41 41 40 43 52 57 56 62 68 73 87 96 96 98 101 101 99 101 105 100 94 94 81 75 94 106 102 103 100 85 66 50 40 33 25 21 17 15 14 14
4 4 4 4 5 5 5 5 6 6 8 11 14 17 19 18 16 14 13 12 12 10 9 8 7 7 7 7 8 8 8 8 8 8 9 10 11 13 14 16 19 22 26 30 33 36 42 47 52 54 51 46 50 57 57 58 64 74 88 94 92 93 96 94 90 94 102 104 103 102 85 74 92 106 102 97 87 67 52 41 33 27 22 18 16 14 14 14
4 4 4 4 4 5 5 5 6 8 10 12 15 17 19 18 14 12 13 12 10 9 8 7 7 7 7 8 9 9 9 8 8 8 10 11 13 14 16 18 20 24 28 32 36 40 45 51 58 70 77 75 75 82 81 72 68 74 82 86 87 89 89 89 89 92 100 100 96 102 97 86 95 103 94 83 70 53 43 35 27 23 19 16 15 13 13 14
4 4 4 4 5 5 5 5 6 9 11 13 15 18 18 17 13 12 12 11 9 8 8 7 7 7 8 9 9 9 8 8 8 9 11 13 14 16 18 20 23 26 30 34 38 41 47 53 60 73 89 92 89 91 92 85 77 74 74 76 82 84 83 88 92 94 99 93 80 89 103 101 102 104 90 71 56 44 37 29 23 21 17 15 14 14 14 14
4 4 4 5 5 5 5 6 8 11 12 13 16 18 17 15 13 11 11 10 9 7 7 7 7 8 9 9 8 8 8 7 9 10 12 14 16 17 20 22 25 29 32 36 40 43 49 55 58 69 85 89 84 85 86 85 82 78 75 76 80 81 82 90 95 96 98 89 72 78 97 101 101 97 80 60 48 38 31 25 21 18 16 14 14 14 14 13
4 5 4 4 5 5 5 6 9 12 13 14 16 18 16 13 12 11 10 9 8 7 7 8 8 8 8 8 7 7 7 8 9 11 13 15 16 19 21 24 28 31 33 37 41 45 52 57 57 64 78 82 78 80 83 80 77 76 75 76 77 81 87 90 92 96 99 93 84 88 97 99 94 81 62 50 41 32 26 21 18 16 15 15 15 14 14 13
5 5 5 5 5 5 5 7 10 12 12 14 17 17 14 12 11 10 9 9 8 8 8 8 8 8 8 8 7 7 8 9 10 11 13 16 18 20 22 26 30 32 35 39 43 49 54 59 59 61 72 77 75 77 81 77 70 70 72 74 75 81 86 83 84 95 99 96 98 102 99 90 81 66 50 42 35 27 22 18 16 15 14 14 15 15 15 13
5 5 5 5 5 4 6 8 11 12 12 15 17 16 12 10 10 9 9 8 8 8 8 8 8 8 8 8 8 8 9 9 10 12 13 16 19 20 23 28 31 34 37 41 46 52 56 60 62 61 67 73 73 74 77 72 68 68 69 72 75 77 77 76 83 96 100 98 99 101 92 77 64 52 43 36 29 22 18 16 15 14 14 15 14 14 14 14
5 5 5 5 4 5 7 10 12 12 13 15 17 14 11 10 10 9 9 8 8 8 8 8 9 8 8 8 8 8 9 10 11 12 14 17 20 22 24 29 33 36 39 43 48 53 57 61 63 61 64 71 73 74 73 67 63 66 69 71 72 71 73 82 95 102 104 103 99 91 81 67 53 45 38 29 23 18 15 15 16 15 15 16 15 15 15 13
5 5 5 5 5 5 8 11 12 12 13 16 17 13 11 10 9 9 9 9 9 9 8 8 9 8 8 8 9 9 10 11 12 13 14 17 20 22 25 29 34 37 40 45 50 55 59 65 68 67 67 70 71 72 73 68 61 65 74 76 74 75 80 88 99 104 102 102 99 87 72 59 48 39 31 22 17 16 15 16 18 17 17 18 17 18 17 14
Wind_Speed
13 12 11 10 9 8 6 6 5 5 4 3 2 1 3 4 5 6 7 7 7 8 8 9 10 11 11 12 13 14 15 16 17 17 16 16 16 16 16 16 16 16 16 16 15 15 15 16 16 17 17 18 18 19 19 20 21 21 21 22 22 23 23 23 24 26 27 27 28 29 29 30 33 34 33 32 32 32 33 34 35 36 36 36 37 38 38 38
14 13 12 11 11 9 7 6 6 5 4 3 2 2 3 4 5 6 6 7 7 8 8 9 10 11 11 12 13 15 16 16 16 16 16 15 15 14 14 14 14 14 14 14 14 15 16 16 17 18 18 19 19 20 20 21 21 22 22 23 23 24 23 23 25 27 27 28 29 28 28 30 32 35 35 34 34 34 36 37 37 38 38 39 40 41 41 42
14 13 13 13 12 10 8 6 6 5 4 3 2 3 3 4 5 6 7 7 7 7 8 9 10 11 12 13 14 15 15 15 15 14 14 14 13 13 13 13 13 14 14 15 16 16 17 18 18 19 19 20 20 20 21 21 22 22 23 23 24 24 24 24 26 27 28 29 30 29 29 31 33 35 35 36 37 37 38 39 40 40 41 42 43 43 44 44
14 14 14 14 12 10 9 8 6 5 4 4 3 3 3 4 5 6 6 6 6 7 8 9 11 12 13 14 14 14 14 13 13 13 13 12 11 12 12 13 14 15 16 16 17 17 18 19 20 20 20 21 21 21 22 22 23 23 24 25 25 26 25 26 28 29 30 30 31 31 31 32 34 35 36 37 37 38 40 40 41 42 42 43 43 44 44 45
15 15 14 13 12 11 10 9 7 6 5 3 2 2 3 4 5 5 5 5 6 7 8 10 11 12 12 12 12 13 13 12 12 11 11 11 12 13 14 15 16 17 18 18 19 19 19 20 20 21 21 21 22 22 23 23 24 25 26 27 27 28 28 29 30 31 31 32 32 33 33 34 35 36 37 38 38 39 40 40 41 42 42 43 43 43 44 44
14 14 14 14 13 12 11 10 8 6 5 3 2 2 3 3 3 3 4 5 6 8 9 10 11 11 11 11 11 11 11 10 11 11 11 12 14 15 16 17 18 18 19 19 20 20 20 21 21 21 21 22 22 23 23 24 24 26 27 28 29 29 29 31 32 33 33 34 34 35 35 35 37 38 39 39 40 40 40 41 41 42 43 43 43 44 44 44
14 15 15 15 14 13 12 10 8 6 4 3 2 2 1 1 2 3 4 5 7 8 9 9 10 10 10 10 10 10 10 11 11 12 13 15 16 17 18 18 18 18 19 19 20 20 21 21 21 22 22 23 23 24 24 25 26 27 28 29 30 30 31 33 34 35 35 36 36 36 37 37 38 39 40 41 41 41 41 41 42 42 43 44 44 45 45 46
16 16 17 16 15 14 12 10 8 6 4 3 2 2 1 1 2 3 5 7 8 8 8 9 9 9 9 10 11 11 12 12 12 14 15 16 16 16 17 17 17 18 19 19 20 20 21 21 22 23 24 25 25 26 27 28 29 29 30 31 32 32 33 34 35 36 36 37 37 37 37 38 39 39 39 40 41 41 41 42 42 43 43 44 45 46 47 47
18 18 18 17 15 13 11 9 7 6 5 4 4 3 2 2 3 5 6 7 7 7 8 8 9 9 10 12 13 13 13 13 14 15 15 15 15 15 16 17 17 18 19 20 20 21 22 23 24 25 26 27 28 29 30 31 32 32 33 34 33 33 34 35 35 36 36 37 37 36 36 36 37 38 38 40 41 41 41 42 42 43 43 44 45 46 47 48
20 19 18 16 14 12 11 9 8 8 7 6 5 4 4 4 5 6 7 7 8 8 9 10 11 11 12 14 15 14 13 13 13 14 14 15 15 15 16 17 18 19 20 21 22 23 24 25 26 27 28 29 30 31 31 32 32 33 33 33 33 34 34 34 34 35 35 35 36 35 35 35 36 37 38 39 41 41 42 43 44 44 44 45 45 46 47 49
20 19 17 15 14 12 11 11 10 9 8 7 6 5 6 6 7 7 8 9 10 11 11 12 12 13 13 14 14 13 12 13 13 13 14 15 15 16 17 18 20 21 22 23 25 26 27 27 28 29 29 30 31 31 31 31 32 32 32 32 33 33 34 34 33 35 35 35 35 36 35 35 36 37 38 40 42 43 44 44 45 46 46 46 47 47 49 50
19 18 17 15 14 14 13 12 11 9 8 7 7 7 7 8 9 10 11 12 12 13 13 13 13 13 12 13 12 12 12 13 13 14 15 16 17 18 19 21 22 24 25 26 27 27 28 28 29 29 30 31 31 31 31 31 31 31 32 32 32 32 34 34 34 35 35 35 36 37 37 36 38 39 39 42 44 45 45 46 47 47 48 48 49 49 50 51
19 18 17 17 16 15 13 12 11 10 9 9 9 9 10 11 12 12 13 13 13 13 13 13 12 12 12 12 12 12 13 13 14 15 17 18 20 21 22 24 25 26 27 28 28 29 29 29 29 30 30 30 30 31 31 30 29 30 31 32 32 32 34 35 35 35 37 37 38 40 39 36 38 40 40 42 45 46 46 47 47 48 49 50 50 51 51 52
19 19 18 17 16 14 13 12 11 11 11 11 11 12 13 13 14 14 13 13 12 13 13 13 12 12 11 12 13 14 15 16 17 18 19 21 23 24 25 26 27 28 29 29 29 29 29 29 30 30 30 30 31 31 31 30 30 30 31 32 32 32 34 35 37 37 38 39 39 41 41 37 38 41 41 43 45 46 46 46 47 48 49 50 51 52 53 54
20 19 18 16 15 14 13 13 13 13 13 14 15 15 15 15 15 14 13 12 12 13 13 13 13 12 12 13 14 15 16 18 20 21 22 23 25 26 27 27 28 28 29 29 29 29 29 30 31 31 32 32 32 33 33 33 33 32 32 34 35 35 34 35 37 38 39 40 41 42 43 41 41 43 43 44 45 46 47 47 48 49 50 51 52 52 53 55
20 19 17 16 15 15 14 15 15 16 17 17 17 16 16 16 15 14 13 13 14 14 14 14 14 13 13 15 15 16 19 21 22 23 23 24 26 27 27 27 28 28 28 29 30 30 31 31 31 32 33 33 33 34 35 35 35 35 36 36 36 36 35 35 36 39 40 41 42 43 45 45 44 45 45 46 47 47 48 49 50 51 52 53 54 54 55 56
20 18 17 16 16 16 17 18 18 19 19 18 17 17 16 15 14 13 14 15 14 15 15 14 13 13 15 17 17 19 22 22 23 23 24 25 26 26 27 27 27 27 28 29 29 30 31 31 31 32 32 33 34 35 36 37 37 37 37 37 37 37 38 37 37 40 42 43 43 43 46 47 46 47 47 48 49 48 50 51 51 52 52 53 55 57 58 60
19 18 18 18 19 20 20 20 20 20 19 18 17 16 15 14 14 14 15 14 14 14 15 14 15 16 18 19 20 21 22 22 23 24 24 25 26 26 26 27 27 27 28 28 29 30 30 31 31 32 33 33 34 34 35 36 37 37 37 37 38 39 41 41 41 42 43 43 44 43 44 45 45 46 47 48 49 48 48 48 49 51 53 55 56 58 61 63
20 20 21 22 22 22 22 22 20 19 18 17 17 16 15 16 15 15 15 13 14 16 16 16 18 19 18 18 19 20 20 21 22 23 24 25 26 26 26 27 27 28 28 28 29 31 31 32 32 33 34 34 34 34 35 36 37 38 39 39 40 40 41 42 42 44 45 43 42 44 44 45 46 47 47 48 49 47 46 47 50 53 55 56 58 61 63 66
23 24 24 25 25 24 23 22 20 18 16 15 16 17 17 16 15 15 14 14 16 17 17 17 18 18 18 18 19 19 20 21 22 23 24 25 26 26 26 27 27 28 29 29 30 31 32 33 33 34 35 35 36 36 37 38 39 40 41 41 42 42 42 43 43 44 46 45 43 45 47 47 49 48 48 49 49 47 49 52 54 56 58 59 61 63 65 67
26 27 27 27 26 25 24 22 20 18 17 17 18 19 17 16 15 14 15 16 17 17 17 18 18 18 18 19 20 21 22 23 23 23 24 25 26 26 28 28 29 30 31 31 31 32 33 34 35 35 36 37 37 38 38 40 41 41 42 42 43 44 43 43 45 45 46 48 46 47 48 47 50 51 50 50 50 51 53 55 56 58 60 61 63 65 67 69
29 28 27 26 25 24 23 21 20 20 20 20 19 18 17 16 16 16 16 16 16 17 17 17 18 18 18 19 20 21 23 25 25 25 26 27 27 28 29 30 31 32 32 33 34 34 34 35 36 36 37 37 37 38 39 40 41 42 43 44 44 46 46 42 43 46 48 50 49 48 47 47 51 52 52 51 51 53 55 56 58 59 61 63 65 67 69 71
29 28 27 26 24 23 23 22 23 23 21 20 19 18 17 17 17 17 17 16 16 17 18 18 18 20 20 21 23 23 23 24 25 25 27 28 28 29 31 31 32 33 34 34 35 36 36 36 36 37 37 38 38 38 38 39 41 43 44 45 46 47 48 46 44 46 48 51 52 50 47 47 50 53 53 53 52 54 55 57 59 60 63 65 67 69 71 73
29 28 26 25 24 24 24 24 24 22 20 19 18 17 17 17 16 17 17 17 17 17 18 19 20 21 21 22 24 24 24 25 25 26 28 29 30 31 32 32 34 34 34 34 35 36 37 38 38 38 39 38 38 38 38 38 40 42 43 45 45 46 48 49 49 48 46 48 52 53 50 45 48 54 55 53 54 56 56 58 60 63 65 67 69 71 73 75
29 27 26 26 26 26 25 24 22 20 19 19 18 17 16 16 16 16 17 17 18 18 18 20 21 23 24 24 25 25 25 26 26 27 29 30 31 32 33 34 35 35 35 36 36 37 38 38 38 38 38 39 39 40 40 40 40 42 43 43 45 46 47 48 49 50 48 47 50 55 54 48 47 52 55 55 56 57 58 60 63 65 67 69 71 73 75 77
28 27 27 28 28 26 24 22 21 20 20 19 18 17 17 16 16 16 16 17 18 19 20 21 23 24 25 25 25 25 26 27 28 29 31 31 32 33 34 35 36 36 37 38 38 38 38 38 38 38 39 40 40 41 41 42 41 42 44 44 45 47 48 49 50 51 52 51 51 54 57 54 50 51 54 56 58 59 61 64 65 67 69 71 73 75 77 79
28 29 29 28 27 25 23 22 21 20 19 19 18 17 17 17 17 17 16 18 20 21 22 23 24 25 25 25 25 26 27 28 29 31 32 32 33 34 35 35 36 37 38 39 38 38 38 38 39 39 40 40 41 42 42 42 43 44 46 47 48 48 49 51 51 51 52 52 52 53 56 56 54 52 55 57 59 62 64 66 68 70 72 73 74 77 80 81
30 30 29 27 25 24 22 22 21 20 19 18 17 17 17 17 19 19 18 20 22 22 24 25 25 26 26 26 26 27 28 29 30 31 32 34 35 35 36 37 38 38 38 38 38 37 38 39 39 41 42 41 42 44 45 45 47 48 49 50 50 51 51 51 51 50 51 51 51 52 55 57 55 54 57 59 61 64 66 68 70 72 73 75 77 80 81 81
31 29 27 25 24 23 22 21 20 19 18 17 17 18 19 19 20 20 20 22 23 23 25 26 26 26 27 27 27 28 28 29 32 34 35 36 37 37 38 38 38 38 37 39 39 38 39 41 41 43 44 44 44 46 48 50 50 50 50 51 51 52 52 52 52 51 51 51 52 53 56 60 58 55 58 62 63 66 68 69 70 71 73 76 79 81 81 82
29 27 26 24 23 22 21 19 18 18 17 18 18 18 19 20 20 21 23 23 23 24 25 25 25 26 27 27 27 28 30 31 34 36 37 38 38 38 38 37 38 38 38 40 41 40 41 43 44 46 48 49 49 49 49 51 51 51 52 54 54 54 55 55 54 55 54 52 53 55 56 59 60 58 59 63 64 66 68 69 70 72 75 77 80 81 81 82
27 26 24 23 22 21 19 18 18 18 18 18 18 18 19 21 21 21 24 24 23 24 24 24 25 26 27 28 29 31 32 34 35 36 37 38 38 38 39 39 40 41 41 43 44 43 43 46 47 49 51 52 52 52 49 49 51 52 54 57 59 59 58 57 55 55 55 53 53 55 56 57 59 61 62 63 64 66 68 69 72 75 77 79 80 81 81 83
26 25 23 22 20 19 17 17 17 17 18 18 18 18 18 20 21 22 23 23 23 24 24 24 27 28 30 31 32 34 34 35 37 37 39 41 41 42 44 45 46 46 46 48 48 46 44 47 50 52 53 54 54 54 52 51 53 55 56 59 62 63 62 60 59 57 57 55 54 55 57 57 59 61 62 63 64 66 68 71 74 76 78 79 79 80 81 82
25 23 22 20 19 18 17 17 17 17 17 17 16 17 18 19 21 22 23 23 24 24 25 27 29 31 33 33 34 35 36 36 38 40 42 44 45 46 47 48 49 50 50 50 52 51 49 49 52 53 54 55 56 57 56 55 56 57 59 61 62 64 65 64 64 63 62 61 58 57 58 58 60 62 62 64 66 68 70 74 76 77 78 79 79 80 80 80
24 22 21 19 18 18 17 16 16 16 16 16 15 16 18 20 21 22 23 24 25 26 27 29 31 33 34 34 34 37 38 39 41 42 44 46 47 47 49 50 51 52 53 53 54 56 54 52 55 55 55 57 57 57 58 57 57 58 59 61 61 62 64 65 65 66 67 66 63 60 60 61 62 63 64 66 68 70 73 76 77 78 80 80 80 80 80 82
22 21 20 19 19 18 17 15 15 15 15 15 15 17 19 20 21 22 24 26 26 27 29 30 32 33 33 34 36 38 41 42 44 45 47 48 49 51 52 52 53 54 55 56 56 58 56 53 55 57 56 58 58 57 58 57 57 59 59 60 60 60 62 64 65 65 67 68 66 62 62 63 63 64 65 68 70 72 75 76 77 79 80 80 80 81 82 83
20 20 20 19 20 19 17 15 14 14 14 14 16 18 19 20 22 23 25 26 27 28 29 30 31 32 33 35 37 39 42 44 47 48 49 50 51 53 54 54 55 56 57 58 58 60 58 53 55 57 56 56 58 57 57 57 58 59 60 60 60 61 62 64 65 64 65 68 67 65 66 66 66 66 66 68 71 74 77 79 80 80 80 80 81 81 82 82
19 19 19 19 20 19 17 15 15 14 14 15 18 19 20 21 23 24 25 27 27 28 30 30 32 34 35 37 38 40 43 45 48 49 51 52 52 53 55 56 57 58 59 59 59 60 61 56 56 58 56 56 58 57 57 58 59 59 60 61 61 62 62 64 65 65 66 69 68 67 69 70 71 70 69 71 74 77 80 81 81 81 82 81 81 81 81 79
17 18 18 19 20 19 18 17 16 15 16 19 20 20 20 22 24 25 25 26 27 28 30 31 33 36 37 39 41 42 44 46 48 50 52 53 53 54 56 57 58 59 59 61 60 61 63 61 59 59 59 58 58 58 59 60 59 59 60 62 63 63 63 64 64 64 67 71 72 71 70 72 72 71 72 75 78 81 82 83 83 83 83 81 80 81 80 77
16 17 19 20 19 19 18 16 16 18 20 22 21 20 21 23 24 24 25 26 28 29 31 33 35 36 38 40 42 44 46 47 49 51 52 53 54 54 56 57 59 60 60 62 62 62 63 64 62 61 61 60 59 60 62 60 60 60 61 62 63 64 64 63 62 63 67 72 74 74 75 75 73 72 75 78 80 82 83 84 84 83 81 80 79 79 77 75
17 18 19 19 19 18 15 14 19 22 23 22 21 21 22 23 23 24 25 26 28 30 32 34 36 37 39 40 42 44 46 48 49 51 52 53 54 54 55 57 59 60 61 62 64 64 64 65 65 64 63 62 61 61 62 62 63 63 63 64 65 64 63 63 63 63 66 71 74 76 79 78 74 74 77 79 81 83 83 83 83 82 80 77 77 76 75 73
18 19 18 17 17 14 12 17 23 24 22 21 21 22 22 23 23 24 25 26 28 31 33 35 36 37 39 40 42 44 46 47 49 50 51 52 53 54 55 57 59 60 62 63 64 65 65 66 67 67 66 64 62 62 64 66 66 65 65 65 65 64 63 64 65 65 66 70 72 75 80 80 75 76 78 80 82 82 81 82 82 80 77 75 74 74 72 70
19 18 16 14 14 12 15 21 23 21 21 22 22 22 23 23 24 24 25 27 28 31 33 35 36 36 38 40 42 44 46 47 48 49 50 51 53 54 56 57 59 61 62 64 64 66 66 66 67 67 67 66 63 63 66 67 65 63 62 63 63 63 63 64 67 68 68 69 71 75 80 79 76 77 79 81 83 82 80 81 80 78 75 73 72 71 69 66
17 16 13 13 13 14 18 22 21 20 21 21 21 22 23 24 24 24 26 27 29 31 33 34 35 36 37 39 41 44 46 46 47 48 49 51 53 55 56 58 60 62 63 64 65 66 67 67 67 67 66 64 62 62 64 64 63 61 60 61 62 63 63 64 67 70 71 70 72 77 81 80 78 78 81 82 83 81 79 79 78 76 73 71 69 68 66 64
15 14 12 13 14 16 19 21 20 20 21 21 21 23 23 24 24 25 26 27 29 32 33 34 35 36 38 39 41 44 46 47 48 48 49 51 53 55 57 59 61 62 64 65 66 67 68 69 69 68 69 69 66 65 67 67 65 63 61 61 63 64 65 66 67 70 72 72 73 76 82 83 80 79 82 83 83 81 79 77 75 74 72 69 67 65 63 61
13 13 12 13 15 17 19 20 20 20 20 21 21 22 23 24 24 25 26 28 30 32 33 35 35 37 38 40 42 44 46 47 48 49 50 52 54 56 58 60 61 63 65 66 67 68 69 70 69 68 68 71 71 69 70 71 69 66 63 63 64 65 66 67 68 70 72 74 74 75 81 85 82 81 84 84 83 81 78 76 74 73 71 69 66 63 60 58
13 13 12 13 15 17 18 19 19 20 20 21 21 22 23 23 24 25 26 28 30 32 34 35 36 37 38 40 43 45 46 47 48 49 50 52 55 57 59 61 62 64 66 67 68 69 70 70 70 67 64 66 68 67 67 69 69 67 66 65 65 66 67 68 68 70 72 76 78 77 80 86 84 84 85 85 83 81 79 77 75 73 72 68 64 61 58 55
13 13 12 13 14 16 18 19 19 19 20 20 21 22 23 23 24 25 26 28 30 33 34 35 36 37 39 41 43 45 46 47 49 50 51 53 56 58 60 62 63 65 67 68 69 70 70 71 71 68 64 64 67 67 66 66 67 67 67 67 67 67 67 68 69 71 73 77 81 80 81 85 86 85 86 85 83 81 78 76 75 73 72 69 63 59 55 52
11 12 12 12 14 16 18 18 18 19 20 21 22 23 23 23 24 25 27 28 30 33 34 35 36 38 40 42 44 45 46 47 50 52 53 54 56 59 61 63 64 67 68 69 70 71 71 71 72 70 66 65 68 67 65 66 67 66 67 68 68 68 68 68 70 72 73 76 81 83 83 85 86 86 85 84 82 80 78 75 73 72 71 68 63 57 53 48
10 11 12 12 14 17 18 17 18 19 20 21 22 22 23 23 24 25 27 28 30 33 34 35 37 39 40 42 44 46 47 48 51 53 54 56 58 60 62 64 66 68 69 71 72 72 72 72 73 73 68 67 69 68 66 68 69 67 67 68 68 68 68 69 71 73 74 77 80 84 85 85 85 85 85 83 81 78 75 73 71 70 69 67 62 57 53 49
9 10 12 13 15 17 16 16 18 19 20 21 22 22 22 23 24 26 27 29 31 33 34 36 37 39 41 42 44 46 48 50 53 55 57 58 59 62 64 66 68 69 71 72 73 73 73 73 74 75 72 70 71 71 69 70 71 69 69 68 67 68 69 70 72 74 77 80 83 85 86 86 85 85 85 83 80 77 74 72 70 69 68 66 62 57 53 49
10 10 12 14 15 16 16 16 18 19 21 21 21 22 22 24 25 26 27 29 31 33 35 36 38 39 41 42 44 47 50 52 54 57 59 60 62 64 65 67 69 71 72 73 74 75 75 74 75 77 75 74 74 74 73 74 74 72 71 69 68 70 73 75 77 77 78 83 86 87 88 88 88 87 86 83 79 77 74 72 70 69 68 66 63 59 54 49
10 10 12 14 15 15 15 16 18 20 21 21 21 21 22 24 25 26 28 30 32 33 35 37 38 40 41 43 45 48 51 54 56 58 60 61 63 65 66 68 69 71 73 74 75 76 76 76 77 78 78 77 77 77 77 77 78 76 74 73 73 75 77 79 80 78 78 83 87 89 89 89 88 87 86 84 80 78 75 72 71 71 69 67 64 60 56 51
Wind_Direction
213 212 206 197 188 180 167 156 149 152 163 180 201 257 277 283 290 295 298 302 307 312 316 321 331 336 338 337 333 334 335 334 332 331 330 329 328 327 325 323 323 322 321 321 322 324 326 327 327 326 324 321 319 316 316 314 312 310 308 307 307 305 305 305 301 299 299 299 299 300 301 300 300 298 296 296 296 296 296 294 293 292 292 292 291 291 290 290
210 208 203 195 189 183 168 151 149 161 174 192 228 264 279 291 296 300 303 307 310 313 315 321 331 334 334 332 331 331 329 328 329 330 332 334 335 333 332 332 333 334 333 332 332 332 330 330 328 326 322 319 317 315 314 311 310 309 308 307 306 305 307 305 301 300 301 301 301 302 303 302 301 301 299 298 297 297 296 294 293 292 292 292 292 291 291 290
203 202 199 193 187 181 170 159 162 169 181 206 238 264 287 297 299 301 304 309 312 316 322 327 331 333 332 331 329 327 328 332 335 338 341 341 340 340 342 343 343 342 340 338 335 334 332 330 326 324 321 318 318 317 315 313 313 312 310 311 309 309 309 305 302 303 303 302 302 302 302 300 299 299 299 297 295 294 293 293 292 291 291 291 291 291 291 290
196 195 193 189 183 178 174 170 170 178 194 213 238 270 290 295 299 302 307 313 319 324 329 332 333 332 331 330 330 331 336 341 345 348 349 348 347 348 348 349 348 345 342 340 337 335 333 330 327 325 323 322 322 321 319 319 318 316 314 314 311 310 308 304 302 303 301 300 300 299 298 297 296 295 294 293 292 291 291 291 291 291 290 290 289 289 289 288
191 188 185 180 175 172 171 173 180 190 200 214 239 268 283 293 300 306 316 326 330 333 334 335 335 333 333 335 340 344 346 350 354 357 357 354 353 353 353 352 350 347 343 340 337 336 334 332 331 329 327 326 325 323 320 319 318 316 314 312 309 308 306 303 302 301 299 298 297 296 294 292 292 293 292 291 290 288 288 288 288 288 288 288 287 287 287 286
182 177 172 168 165 165 168 176 186 193 201 213 231 257 279 292 305 319 333 339 340 339 338 339 339 341 345 347 351 354 357 4 6 3 360 358 358 357 354 351 349 347 344 341 339 338 337 334 331 328 326 323 321 318 316 315 313 311 310 308 306 304 302 301 301 300 298 297 296 295 293 291 291 291 292 291 289 287 287 286 286 287 287 287 287 287 287 286
169 164 160 159 159 162 169 178 185 191 196 204 212 232 267 295 326 344 349 347 345 344 344 347 351 355 359 2 9 13 15 16 11 4 1 359 357 355 352 350 349 348 346 342 340 338 335 330 327 324 321 317 315 313 312 310 308 308 307 305 303 301 300 300 300 300 299 297 295 294 294 293 292 292 293 293 291 290 290 289 289 289 290 290 290 289 289 288
156 154 154 155 158 163 170 176 181 181 179 176 170 166 151 32 8 2 358 354 351 352 356 2 9 15 23 29 30 26 20 15 7 2 359 356 355 354 353 352 349 347 344 340 336 332 329 325 322 321 318 317 316 314 312 310 309 308 307 306 304 302 301 301 300 299 299 297 295 294 294 294 294 293 293 293 292 292 292 292 292 292 291 291 290 290 290 289
150 151 152 156 159 163 167 169 168 161 154 147 139 127 98 50 24 10 4 3 5 13 21 31 38 40 41 37 32 24 15 7 3 1 0 359 358 357 354 351 346 341 338 335 330 325 324 323 322 321 320 319 318 316 314 312 311 310 309 307 305 303 301 301 300 299 298 296 294 293 292 293 294 294 294 294 293 293 293 292 292 291 290 290 289 289 288 288
149 151 153 156 158 159 159 155 148 143 138 130 120 101 70 43 27 19 20 27 37 46 50 52 50 45 40 33 26 19 12 8 8 8 6 4 359 354 349 346 342 337 332 329 328 325 323 322 322 322 320 318 316 315 314 312 311 310 308 306 305 304 302 301 300 299 298 297 295 294 293 294 295 295 295 295 293 293 293 293 292 291 290 289 288 287 287 287
150 151 152 152 151 149 145 141 136 131 125 114 98 77 57 45 42 46 53 57 59 60 57 53 45 39 35 29 24 21 19 18 15 9 4 0 355 351 345 340 336 333 330 327 326 325 323 321 320 319 318 316 314 313 312 311 311 309 308 307 306 305 303 303 303 301 300 299 298 297 297 298 298 298 298 296 295 294 294 294 293 292 290 289 288 288 288 288
149 148 146 143 141 139 135 132 126 119 109 95 80 68 62 63 68 73 73 70 66 60 54 47 39 35 36 33 29 27 23 17 12 5 359 354 350 348 343 338 334 332 330 327 326 325 323 321 319 317 316 314 313 312 312 312 311 309 308 308 308 308 306 306 306 304 303 302 302 301 302 304 303 301 300 298 296 295 294 293 292 292 291 290 290 290 290 289
144 141 139 137 135 132 127 122 114 105 93 84 79 78 80 82 84 83 78 73 65 58 51 45 41 42 45 41 33 25 17 10 5 359 354 351 347 344 340 337 335 333 331 328 326 324 323 321 319 316 314 314 313 312 312 311 310 309 310 309 310 310 308 309 309 308 307 307 306 305 304 306 304 301 299 297 295 294 293 293 292 292 291 291 291 290 290 289
139 136 134 131 128 123 117 110 101 94 89 88 89 91 91 90 87 80 74 68 62 58 55 53 52 51 46 37 27 18 10 5 0 355 351 349 345 342 339 337 334 332 330 328 326 325 324 322 319 318 317 316 314 313 312 312 312 312 311 310 311 312 313 313 312 310 308 307 306 303 303 305 302 299 298 296 295 294 294 294 293 292 292 292 291 291 290 289
136 132 128 124 120 114 106 100 97 96 98 97 97 97 94 88 81 75 69 66 67 67 65 60 54 46 35 27 21 10 3 0 357 353 349 345 342 341 339 335 333 330 329 327 327 326 324 322 321 320 319 317 316 315 315 314 314 314 314 315 316 316 315 312 309 307 305 304 304 303 303 305 303 300 300 298 297 296 296 296 295 295 295 294 292 291 291 290
130 126 122 118 111 105 101 101 103 104 103 101 99 95 90 84 78 74 74 74 75 72 66 56 45 35 26 20 11 1 360 358 355 351 346 343 341 339 336 334 332 330 329 328 327 325 324 323 322 321 319 318 318 316 315 315 316 317 317 317 316 314 312 308 305 304 304 305 306 305 305 305 303 301 301 300 298 299 298 298 298 298 297 295 294 293 291 289
125 121 116 111 105 105 106 107 107 106 103 100 96 91 87 81 78 80 82 79 73 66 60 51 38 29 23 16 5 359 359 355 351 348 345 343 340 337 335 333 331 330 330 328 326 325 324 323 321 320 318 318 318 317 317 318 319 318 316 314 313 312 310 309 307 306 306 306 306 306 305 305 303 302 301 299 300 301 300 299 299 297 296 295 294 293 291 289
119 115 111 109 109 110 110 108 106 104 101 97 93 90 86 82 83 85 81 74 66 59 52 40 28 20 14 8 2 358 355 351 348 346 344 342 339 337 334 332 332 332 331 328 326 325 325 325 324 323 321 320 319 319 319 318 317 315 312 312 312 312 311 311 310 307 305 305 305 304 302 302 302 301 301 301 302 302 299 298 296 295 295 296 296 296 296 296
115 113 112 113 112 110 108 106 104 101 97 94 93 92 90 87 86 82 76 69 58 50 40 29 22 15 7 1 358 354 351 349 347 345 344 342 340 338 336 335 334 334 333 331 329 329 329 330 329 328 326 325 323 321 319 318 317 316 315 315 315 314 313 312 310 307 305 305 305 304 302 303 305 305 305 305 305 304 301 300 300 299 300 300 300 301 302 302
116 115 114 113 111 108 106 104 100 96 93 94 95 94 91 88 83 76 71 60 48 39 30 23 16 9 5 1 357 355 354 352 349 347 345 343 342 341 339 339 337 337 338 337 335 334 333 333 333 332 331 329 327 326 324 323 322 321 319 318 317 315 315 314 312 310 308 308 309 308 308 310 310 309 308 307 307 308 307 306 306 307 307 305 304 304 304 305
117 116 114 111 109 106 104 100 98 96 96 97 97 94 91 85 78 68 59 49 40 32 23 18 10 5 5 1 356 355 352 351 351 349 346 345 345 343 343 343 343 343 343 341 340 338 337 336 336 335 334 332 331 329 327 326 324 322 321 320 318 317 318 318 315 314 312 312 313 312 311 312 311 310 309 308 310 310 310 310 311 310 309 307 307 307 307 307
116 114 111 108 106 104 102 101 101 100 100 99 96 92 87 79 68 56 49 41 34 27 19 14 8 4 3 359 356 353 350 350 348 346 346 348 347 347 347 347 348 347 346 344 342 341 340 339 338 337 336 335 333 331 330 328 326 324 323 322 321 319 318 319 316 315 316 316 314 312 312 313 312 312 312 310 311 311 311 312 312 310 308 308 309 309 310 310
113 110 108 106 104 103 103 103 102 101 100 97 93 87 79 70 60 50 44 35 29 24 17 11 7 3 1 356 354 353 351 349 345 346 349 349 350 351 351 350 350 349 348 346 344 343 342 340 340 340 339 337 335 333 332 331 328 327 326 324 323 321 320 321 319 318 320 318 315 312 312 314 314 314 314 315 315 314 314 313 311 309 310 311 311 311 312 311
110 108 106 105 105 105 105 104 102 101 98 93 86 78 69 61 52 44 39 31 25 21 14 10 5 1 360 356 353 353 350 348 348 350 351 351 352 352 352 351 350 350 350 347 345 344 343 342 343 342 340 338 336 334 334 333 331 328 326 325 324 323 323 323 322 321 321 319 317 314 313 316 316 315 319 322 320 317 315 312 310 311 312 312 312 313 312 311
109 107 107 108 108 108 106 104 102 98 92 85 77 70 62 54 46 39 34 29 24 19 12 9 6 2 1 358 356 354 351 352 353 352 352 353 353 352 352 352 351 351 350 349 348 347 346 345 344 342 341 339 337 336 335 335 333 329 326 326 325 325 325 324 323 322 322 321 319 317 316 319 318 319 322 323 319 316 314 312 312 313 314 314 314 313 312 311
109 109 109 110 109 107 104 101 97 91 85 78 71 64 56 50 44 37 32 27 23 19 13 9 8 5 3 360 358 356 355 356 356 355 355 354 353 353 353 353 353 352 351 351 350 350 348 346 344 343 343 342 338 336 335 335 334 330 329 329 329 328 327 326 325 325 324 324 324 321 320 320 321 322 321 318 316 315 314 314 315 315 315 315 314 313 313 312
112 111 110 108 106 103 100 96 90 85 79 72 66 59 53 47 41 37 32 27 23 19 14 11 10 8 5 3 2 0 359 359 358 357 356 355 355 355 354 354 354 354 353 352 351 350 348 346 345 346 345 343 340 338 336 336 336 335 333 333 332 331 329 328 328 326 324 325 325 322 321 320 322 322 318 316 315 315 316 318 317 317 316 316 314 314 313 313
112 110 108 105 102 99 95 91 86 80 74 68 61 55 51 45 40 35 31 28 23 18 15 12 11 8 7 6 5 3 2 0 359 358 358 358 357 357 356 356 356 356 354 353 352 350 349 349 348 348 347 345 343 341 339 339 340 339 337 335 333 332 331 329 327 326 325 325 324 322 321 321 322 323 319 317 317 318 320 319 318 318 317 316 315 314 314 314
110 107 104 101 98 95 91 88 83 78 71 65 58 52 48 44 39 33 30 27 21 18 16 13 11 8 7 7 6 5 3 1 1 0 1 0 359 358 358 357 356 356 355 354 354 353 352 352 351 350 349 348 347 345 343 342 342 340 336 336 335 332 331 329 328 328 328 327 326 324 324 322 323 325 322 320 322 322 321 319 318 318 316 316 316 316 315 314
105 102 100 97 95 93 90 86 80 74 68 62 56 50 45 42 37 31 29 26 20 18 16 13 11 9 8 7 6 7 5 4 4 2 1 1 360 360 359 358 357 357 357 357 357 355 354 354 353 352 351 351 350 348 344 342 341 338 337 336 336 334 333 332 331 330 330 330 329 326 325 324 325 326 324 322 323 322 320 318 317 316 316 316 317 316 315 312
101 98 96 95 93 91 88 83 77 71 65 60 55 48 43 40 35 29 27 24 18 17 15 11 11 11 10 10 10 10 8 7 6 4 2 2 1 0 359 358 359 359 359 359 359 358 355 355 354 353 352 351 350 349 345 341 339 339 338 336 335 335 334 333 332 330 330 332 330 327 326 325 327 327 324 323 323 321 318 317 317 317 318 318 317 316 314 311
97 96 95 94 92 89 83 78 73 68 63 58 52 45 40 37 31 27 24 20 17 16 14 12 12 13 14 13 12 12 10 7 7 5 3 2 1 360 359 358 358 358 359 359 0 360 357 355 354 352 352 350 349 348 345 342 340 340 338 337 336 336 335 334 333 331 332 333 332 329 327 328 328 326 324 323 322 320 319 318 319 320 319 318 317 315 313 311
96 95 95 93 90 85 79 74 69 65 61 55 48 41 35 31 26 23 20 16 15 14 14 15 15 15 16 15 13 11 10 8 7 5 3 2 2 0 360 360 359 359 359 360 360 360 358 355 353 352 351 349 348 347 345 344 342 341 340 339 338 335 334 335 334 333 333 334 334 332 329 329 328 325 324 325 323 322 321 321 322 321 320 318 317 315 313 310
95 93 91 89 84 79 73 69 66 61 56 49 42 35 31 27 22 18 16 15 14 15 16 16 17 17 16 15 14 11 9 8 7 6 4 3 2 1 0 0 360 360 360 359 359 359 358 355 353 353 351 349 348 346 345 345 342 342 342 340 337 334 333 333 333 333 331 332 335 334 331 330 329 327 327 326 324 324 324 323 322 321 320 319 317 314 311 309
91 88 86 84 79 73 66 63 61 56 50 42 33 30 26 21 17 15 14 15 15 17 17 18 18 18 15 15 14 11 9 8 7 6 4 3 1 0 0 0 0 360 359 358 358 358 359 357 353 352 351 349 348 346 345 344 342 342 342 339 337 334 333 333 333 332 330 329 333 334 330 330 329 329 329 327 326 326 324 322 322 320 319 318 316 313 311 311
89 85 83 80 75 69 61 57 55 49 42 34 29 27 22 17 16 14 15 16 17 19 19 19 19 18 16 16 14 12 10 8 6 5 4 3 2 0 1 1 360 360 359 358 357 356 357 358 354 352 352 349 348 346 344 343 343 342 340 338 337 335 335 333 332 332 329 328 331 333 330 330 331 331 330 328 327 325 323 322 322 321 319 318 317 315 313 314
88 85 81 78 73 67 58 51 47 41 36 31 28 24 19 17 17 16 17 19 20 21 21 20 20 19 18 17 15 13 11 8 6 5 4 3 2 1 0 0 360 359 358 357 357 356 355 358 356 353 352 350 348 346 344 344 345 342 338 338 337 337 336 333 331 332 331 328 330 333 332 332 333 332 330 328 326 324 324 325 323 321 320 320 318 316 316 317
87 86 81 74 70 65 55 46 40 36 34 32 28 22 19 19 19 19 21 22 23 23 22 22 20 19 18 17 16 14 11 9 7 5 4 3 2 2 1 0 359 359 358 357 357 356 355 356 356 354 352 351 349 346 345 346 345 342 339 338 337 336 336 334 332 332 331 329 330 333 333 333 334 333 331 329 328 326 327 326 323 322 322 321 320 318 319 320
90 86 78 71 65 58 48 40 36 34 33 30 25 22 22 21 20 22 24 25 25 25 23 22 21 19 19 17 16 14 11 9 7 5 5 3 2 2 1 0 359 359 358 357 357 357 355 355 356 355 353 351 350 347 346 346 345 343 341 339 337 336 335 334 334 333 331 330 331 332 333 335 335 333 331 330 329 328 327 326 324 323 323 323 321 321 321 321
91 80 71 65 58 48 39 35 35 32 29 26 24 24 23 21 23 26 27 27 26 25 24 23 21 19 19 17 16 14 11 9 7 6 5 3 2 1 1 0 359 358 358 357 356 356 355 355 355 355 353 352 351 348 346 346 346 344 342 341 339 336 334 333 333 334 333 333 333 331 332 336 336 333 332 331 328 328 327 325 324 324 324 324 323 322 322 323
85 73 66 61 52 38 27 35 36 29 26 26 26 25 24 24 26 28 29 28 27 26 24 22 21 19 18 17 16 14 12 10 8 6 4 3 2 1 0 359 359 358 357 357 356 355 354 354 354 354 353 353 353 350 348 347 347 345 342 340 338 335 334 333 333 335 336 335 334 330 330 335 335 333 333 329 327 328 328 325 324 325 325 324 324 323 323 323
78 70 64 58 47 28 27 37 35 25 26 29 26 25 26 27 29 30 29 29 28 26 24 21 20 19 18 17 15 13 12 10 8 6 4 3 1 0 359 358 358 357 356 356 355 354 354 354 354 354 353 354 354 352 349 349 348 344 341 339 337 336 336 334 334 336 336 335 334 330 330 334 335 333 331 327 327 329 328 326 326 325 326 325 325 325 323 322
74 69 62 51 38 27 31 36 31 25 29 29 26 26 27 28 31 31 29 29 27 25 23 21 19 18 18 17 14 12 11 10 8 5 3 2 1 359 358 357 357 356 356 356 355 354 353 353 354 354 353 353 354 352 350 350 348 345 342 339 338 338 337 336 337 336 334 335 335 331 330 334 334 332 329 327 328 329 329 327 326 326 327 327 327 325 323 322
72 67 56 44 33 29 33 33 27 27 30 28 27 27 27 29 31 31 28 28 27 25 23 20 18 17 16 15 14 12 9 8 6 4 2 1 0 359 358 357 356 356 356 356 355 355 354 354 354 353 351 352 354 353 352 353 352 348 344 341 340 339 337 338 339 336 334 335 335 332 330 332 334 331 329 329 330 330 330 329 328 328 329 328 327 326 324 322
67 59 47 38 32 31 32 29 26 29 29 27 26 27 29 30 31 30 28 26 26 24 22 20 17 16 15 14 13 11 9 6 5 3 2 1 360 359 357 357 356 356 356 356 356 356 355 355 355 355 353 351 353 354 351 352 352 349 346 343 341 340 339 340 340 337 335 334 334 333 330 331 334 332 330 331 331 331 331 331 330 330 329 329 328 327 325 323
58 50 41 35 32 31 30 28 28 30 28 26 26 27 30 31 30 29 27 25 25 23 20 19 17 16 15 13 12 11 8 6 4 3 2 0 360 358 357 357 356 356 356 356 356 356 356 356 356 357 355 352 353 353 350 349 349 348 347 345 343 341 341 341 339 338 336 334 334 335 331 331 334 333 331 332 333 333 333 333 333 331 328 329 330 329 327 324
50 43 38 34 31 30 29 29 30 30 27 24 25 28 30 31 30 29 26 25 24 22 20 18 17 16 15 14 13 11 9 6 4 3 1 360 359 358 357 357 356 356 356 357 357 356 356 356 357 358 357 353 353 354 351 348 348 347 347 346 343 342 342 341 339 338 337 334 334 336 334 333 335 334 333 334 334 334 336 335 333 330 329 330 332 331 328 324
44 38 35 31 29 29 29 31 30 28 26 24 25 28 29 30 29 27 26 25 23 21 19 18 16 16 16 14 13 11 9 6 4 2 1 359 359 358 357 357 356 356 356 357 357 357 357 356 356 358 358 355 354 355 352 350 349 349 348 346 344 343 342 342 340 339 338 335 335 337 336 336 336 335 334 335 335 337 337 335 333 330 329 331 332 331 330 326
40 34 31 29 29 28 29 31 29 26 24 23 25 27 29 29 28 26 24 24 23 21 18 17 17 16 16 14 12 10 9 6 4 2 0 359 358 358 357 357 356 356 356 357 357 357 357 357 356 358 359 356 355 356 353 351 351 351 349 347 346 344 343 343 342 340 339 337 336 337 337 337 337 335 336 337 337 337 336 335 333 331 330 331 332 333 333 330
38 33 29 28 30 29 30 31 28 24 23 23 25 27 28 28 27 24 23 22 21 19 17 17 17 16 15 13 12 10 8 6 4 1 360 358 358 357 357 356 356 356 356 356 357 357 357 357 356 356 358 357 356 357 355 353 353 352 350 349 347 345 344 344 345 344 341 338 338 337 337 339 338 337 338 339 338 337 337 335 333 332 332 332 333 335 335 333
36 30 27 29 30 29 30 30 26 23 23 23 24 26 27 26 25 23 22 20 18 18 17 17 16 15 14 12 11 9 7 5 4 2 360 358 357 357 357 356 356 356 356 356 357 357 356 356 356 356 357 358 357 356 356 354 354 353 351 350 349 347 347 347 347 347 343 339 338 339 339 340 340 340 339 339 338 338 338 337 335 334 334 334 335 336 336 334
35 29 26 28 29 28 29 29 25 22 22 23 24 26 26 25 23 22 21 19 17 17 17 16 15 14 13 11 10 8 7 5 4 2 360 358 357 357 356 356 356 356 356 356 356 356 356 356 356 355 357 358 358 357 356 355 354 355 353 351 350 350 350 349 348 347 343 339 339 340 341 341 341 340 339 339 340 340 340 339 337 336 335 335 336 336 336 335